RRR1760 EGVN-EGXE

Flight info

Callsign RRR1760
Flight time N/A
Altitude 28000
Route 523253N0023011W/N0412F270 525312N0010327W DCT 531540N0005354W DCT 533435N0003838W
Aircraft A339/H-SADE1E2E3GHIJ3J5M1P2RWXY/LB2D1

Departure

Time 2026-04-27 20:59
Airport RAF Brize Norton (EGVN)

Arrival

Time N/A
Airport RAF Leeming (EGXE)
Time Latitude Longitude Altitude Speed Heading
2026-04-27 20:45 51.75746 -1.56996 268 ft 0 kts 287°
2026-04-27 20:53 51.75750 -1.57014 268 ft 4 kts 287°
2026-04-27 20:53 51.75765 -1.57071 268 ft 6 kts 308°
2026-04-27 20:53 51.75811 -1.57081 268 ft 8 kts 358°
2026-04-27 20:54 51.75918 -1.57282 271 ft 24 kts 282°
2026-04-27 20:54 51.75866 -1.57527 271 ft 26 kts 205°
2026-04-27 20:54 51.75686 -1.57625 273 ft 29 kts 198°
2026-04-27 20:55 51.75494 -1.57755 274 ft 31 kts 208°
2026-04-27 20:55 51.75295 -1.57925 277 ft 33 kts 208°
2026-04-27 20:55 51.75084 -1.58107 279 ft 35 kts 208°
2026-04-27 20:55 51.74858 -1.58297 281 ft 39 kts 207°
2026-04-27 20:56 51.74645 -1.58538 284 ft 32 kts 248°
2026-04-27 20:56 51.74581 -1.58891 287 ft 33 kts 254°
2026-04-27 20:56 51.74512 -1.59277 294 ft 40 kts 253°
2026-04-27 20:56 51.74428 -1.59744 297 ft 43 kts 261°
2026-04-27 20:57 51.74477 -1.59978 299 ft 0 kts 300°
2026-04-27 20:57 51.74491 -1.60008 301 ft 9 kts 308°
2026-04-27 20:58 51.74581 -1.60085 300 ft 20 kts 338°
2026-04-27 20:58 51.74683 -1.60025 298 ft 17 kts 73°
2026-04-27 20:58 51.74734 -1.59746 294 ft 49 kts 72°
2026-04-27 20:58 51.74918 -1.58755 286 ft 131 kts 73°
2026-04-27 20:59 51.75229 -1.57028 377 ft 182 kts 72°
2026-04-27 20:59 51.75596 -1.55019 1006 ft 189 kts 71°
2026-04-27 20:59 51.75976 -1.52966 1924 ft 186 kts 72°
2026-04-27 20:59 51.76326 -1.50930 2807 ft 196 kts 71°
2026-04-27 21:00 51.76714 -1.48704 3341 ft 216 kts 71°
2026-04-27 21:00 51.77140 -1.46258 3785 ft 235 kts 71°
2026-04-27 21:00 51.77591 -1.43657 4188 ft 250 kts 71°
2026-04-27 21:00 51.78064 -1.40928 4800 ft 255 kts 71°
2026-04-27 21:01 51.78548 -1.38129 5421 ft 261 kts 71°
2026-04-27 21:01 51.79041 -1.35272 6057 ft 265 kts 71°
2026-04-27 21:01 51.79543 -1.32372 6693 ft 270 kts 71°
2026-04-27 21:01 51.80050 -1.29430 7339 ft 273 kts 71°
2026-04-27 21:02 51.80388 -1.27464 7798 ft 274 kts 71°
2026-04-27 21:02 51.80901 -1.24488 8477 ft 276 kts 71°
2026-04-27 21:02 51.81294 -1.22198 9010 ft 278 kts 71°
2026-04-27 21:02 51.81893 -1.18716 9807 ft 281 kts 71°
2026-04-27 21:03 51.82248 -1.16650 10266 ft 283 kts 71°
2026-04-27 21:03 51.83235 -1.10919 10790 ft 312 kts 71°
2026-04-27 21:03 51.84457 -1.03806 11452 ft 337 kts 71°
2026-04-27 21:03 51.85709 -0.96484 12585 ft 345 kts 71°
2026-04-27 21:04 51.87002 -0.88910 13755 ft 352 kts 70°
2026-04-27 21:04 51.88318 -0.81193 14812 ft 359 kts 70°
2026-04-27 21:04 51.90364 -0.73905 15801 ft 353 kts 43°
2026-04-27 21:04 51.93974 -0.70493 16704 ft 343 kts
2026-04-27 21:05 51.96333 -0.69869 17214 ft 345 kts
2026-04-27 21:05 51.98959 -0.69245 17828 ft 346 kts
2026-04-27 21:05 52.03799 -0.68645 18878 ft 350 kts
2026-04-27 21:05 52.08653 -0.68132 19942 ft 351 kts
2026-04-27 21:06 52.16062 -0.67430 21511 ft 355 kts
2026-04-27 21:06 52.26035 -0.66651 23604 ft 362 kts
2026-04-27 21:06 52.35304 -0.66043 25167 ft 370 kts
2026-04-27 21:06 52.37890 -0.65880 25574 ft 373 kts
2026-04-27 21:07 52.40487 -0.65719 25986 ft 375 kts
2026-04-27 21:07 52.43112 -0.65560 26237 ft 378 kts
2026-04-27 21:07 52.45742 -0.65403 26291 ft 378 kts
2026-04-27 21:07 52.48364 -0.65405 26291 ft 376 kts 355°
2026-04-27 21:08 52.50970 -0.65916 26296 ft 376 kts 351°
2026-04-27 21:08 52.53554 -0.66605 26293 ft 376 kts 351°
2026-04-27 21:08 52.56566 -0.67443 26296 ft 376 kts 349°
2026-04-27 21:08 52.66674 -0.71732 26288 ft 375 kts 346°
2026-04-27 21:09 52.76770 -0.76284 26320 ft 374 kts 345°
2026-04-27 21:09 52.86787 -0.80902 26309 ft 373 kts 345°
2026-04-27 21:09 52.96892 -0.83639 26310 ft 372 kts
2026-04-27 21:09 53.07041 -0.80318 26278 ft 374 kts 11°
2026-04-27 21:10 53.17214 -0.76696 25793 ft 372 kts 11°
2026-04-27 21:10 53.27352 -0.73122 25326 ft 369 kts 11°
2026-04-27 21:10 53.37475 -0.72232 25308 ft 371 kts 346°
2026-04-27 21:10 53.47099 -0.78548 25329 ft 372 kts 340°
2026-04-27 21:11 53.56631 -0.85143 25329 ft 370 kts 340°
2026-04-27 21:11 53.66138 -0.91887 25320 ft 369 kts 340°
2026-04-27 21:11 53.71859 -0.96023 25290 ft 368 kts 340°
2026-04-27 21:11 53.76547 -0.99455 24819 ft 365 kts 340°
2026-04-27 21:12 53.81186 -1.02873 24334 ft 362 kts 340°
2026-04-27 21:12 53.85741 -1.06246 23736 ft 359 kts 340°
2026-04-27 21:12 53.90059 -1.10516 23054 ft 361 kts 330°
2026-04-27 21:12 53.91451 -1.12153 22824 ft 361 kts 330°
2026-04-27 21:13 53.92077 -1.12889 22730 ft 360 kts 330°
2026-04-27 21:13 53.95702 -1.17153 22153 ft 358 kts 330°
2026-04-27 21:13 53.99737 -1.21903 21526 ft 356 kts 330°
2026-04-27 21:13 54.03409 -1.27604 20915 ft 363 kts 315°
2026-04-27 21:14 54.06601 -1.34243 20294 ft 361 kts 315°
2026-04-27 21:14 54.09939 -1.41106 19697 ft 397 kts 315°
2026-04-27 21:14 54.13549 -1.48394 19339 ft 401 kts 315°
2026-04-27 21:14 54.17154 -1.55684 19322 ft 403 kts 315°
2026-04-27 21:15 54.20145 -1.61761 19052 ft 403 kts 315°
2026-04-27 21:15 54.21955 -1.65429 18677 ft 402 kts 315°
2026-04-27 21:15 54.23754 -1.69059 18263 ft 400 kts 315°
2026-04-27 21:15 54.25549 -1.72674 17851 ft 397 kts 315°
2026-04-27 21:16 54.27330 -1.76260 17421 ft 395 kts 315°
2026-04-27 21:16 54.29110 -1.79840 16880 ft 393 kts 315°
2026-04-27 21:16 54.30879 -1.83385 16362 ft 389 kts 315°
2026-04-27 21:16 54.32722 -1.86627 15853 ft 381 kts 325°
2026-04-27 21:17 54.34954 -1.88980 15359 ft 375 kts 335°
2026-04-27 21:17 54.37262 -1.91043 14866 ft 373 kts 338°
2026-04-27 21:17 54.39665 -1.92661 14322 ft 369 kts 345°
2026-04-27 21:17 54.42107 -1.93965 13745 ft 365 kts 346°
2026-04-27 21:18 54.44575 -1.94585 13155 ft 353 kts 359°
2026-04-27 21:18 54.47002 -1.94688 12515 ft 345 kts
2026-04-27 21:18 54.49381 -1.94788 11871 ft 339 kts
2026-04-27 21:18 54.51715 -1.94755 11232 ft 332 kts
2026-04-27 21:19 54.53945 -1.93908 10623 ft 325 kts 15°
2026-04-27 21:19 54.56114 -1.92920 9990 ft 320 kts 15°
2026-04-27 21:19 54.58252 -1.91954 9321 ft 315 kts 15°
2026-04-27 21:20 54.62408 -1.90089 7854 ft 303 kts 15°
2026-04-27 21:20 54.64460 -1.89678 7101 ft 294 kts 357°
2026-04-27 21:20 54.66407 -1.90629 6287 ft 293 kts 335°
2026-04-27 21:20 54.68107 -1.92514 5475 ft 287 kts 330°
2026-04-27 21:21 54.69751 -1.94402 4759 ft 278 kts 330°
2026-04-27 21:21 54.71326 -1.96125 4478 ft 255 kts 335°
2026-04-27 21:21 54.72876 -1.97375 4395 ft 236 kts 340°
2026-04-27 21:21 54.74298 -1.98479 4394 ft 217 kts 340°
2026-04-27 21:22 54.75685 -1.99563 4402 ft 218 kts 340°
2026-04-27 21:22 54.77039 -2.00615 4387 ft 203 kts 340°
2026-04-27 21:22 54.77945 -2.01133 4407 ft 193 kts 349°
2026-04-27 21:22 54.79262 -2.01714 4346 ft 195 kts 350°
2026-04-27 21:23 54.80573 -2.02268 4230 ft 197 kts 350°
2026-04-27 21:23 54.81893 -2.02825 4097 ft 194 kts 350°
2026-04-27 21:23 54.83210 -2.03383 3971 ft 196 kts 350°
2026-04-27 21:23 54.84524 -2.03948 3845 ft 193 kts 350°
2026-04-27 21:24 54.85826 -2.04512 3718 ft 194 kts 350°
2026-04-27 21:24 54.87140 -2.05077 3638 ft 192 kts 350°
2026-04-27 21:24 54.88448 -2.05633 3752 ft 201 kts 350°
2026-04-27 21:24 54.89847 -2.06213 3891 ft 209 kts 351°
2026-04-27 21:25 54.91270 -2.06146 3876 ft 206 kts 18°
2026-04-27 21:25 54.92511 -2.04970 3657 ft 204 kts 33°
2026-04-27 21:25 54.93696 -2.03621 3225 ft 203 kts 33°
2026-04-27 21:25 54.94873 -2.02277 2827 ft 204 kts 33°
2026-04-27 21:26 54.96054 -2.00933 2518 ft 201 kts 33°
2026-04-27 21:26 54.96947 -1.99145 2499 ft 208 kts 80°
2026-04-27 21:26 54.96705 -1.96622 2650 ft 224 kts 104°
2026-04-27 21:26 54.96288 -1.94003 1977 ft 215 kts 82°
2026-04-27 21:27 54.97023 -1.92042 2130 ft 199 kts 36°
2026-04-27 21:27 54.98267 -1.90924 2587 ft 205 kts 25°
2026-04-27 21:27 54.99472 -1.89448 2840 ft 217 kts 44°
2026-04-27 21:27 55.00458 -1.87369 2787 ft 226 kts 52°
2026-04-27 21:28 55.00905 -1.84790 2703 ft 233 kts 83°
2026-04-27 21:28 55.00920 -1.81992 2277 ft 221 kts 89°
2026-04-27 21:28 55.01084 -1.79479 1605 ft 193 kts 71°
2026-04-27 21:28 55.01476 -1.77416 1365 ft 166 kts 65°
2026-04-27 21:29 55.01998 -1.75801 1010 ft 153 kts 53°
2026-04-27 21:29 55.02464 -1.74212 724 ft 142 kts 66°
2026-04-27 21:29 55.02815 -1.72714 538 ft 130 kts 63°
2026-04-27 21:29 55.03187 -1.71276 393 ft 128 kts 61°
2026-04-27 21:30 55.03497 -1.70090 276 ft 129 kts 63°
2026-04-27 21:30 55.03838 -1.68816 262 ft 149 kts 64°
2026-04-27 21:30 55.04269 -1.67140 352 ft 189 kts 65°
2026-04-27 21:30 55.04855 -1.64878 807 ft 206 kts 63°
2026-04-27 21:31 55.05691 -1.62772 1511 ft 218 kts 49°
2026-04-27 21:31 55.06802 -1.60811 2074 ft 237 kts 43°
2026-04-27 21:31 55.08044 -1.58891 2704 ft 246 kts 39°
2026-04-27 21:31 55.09578 -1.57524 3316 ft 253 kts 14°
2026-04-27 21:32 55.11365 -1.57408 3596 ft 262 kts 349°
2026-04-27 21:32 55.13034 -1.58652 3673 ft 263 kts 323°
2026-04-27 21:32 55.14222 -1.61045 3680 ft 262 kts 297°
2026-04-27 21:32 55.14669 -1.64109 3678 ft 262 kts 270°
2026-04-27 21:33 55.14344 -1.67228 3676 ft 263 kts 254°
2026-04-27 21:33 55.13871 -1.70310 3678 ft 262 kts 255°
2026-04-27 21:33 55.13404 -1.73355 3677 ft 262 kts 255°
2026-04-27 21:33 55.12931 -1.76433 3558 ft 262 kts 255°
2026-04-27 21:34 55.12257 -1.79377 3418 ft 261 kts 240°
2026-04-27 21:34 55.11347 -1.82119 3262 ft 261 kts 240°
2026-04-27 21:34 55.10440 -1.84845 3195 ft 254 kts 240°
2026-04-27 21:34 55.09591 -1.87396 3143 ft 234 kts 239°
2026-04-27 21:35 55.08794 -1.89786 2981 ft 221 kts 240°
2026-04-27 21:35 55.07969 -1.91953 2796 ft 210 kts 225°
2026-04-27 21:35 55.06743 -1.93165 2672 ft 201 kts 192°
2026-04-27 21:35 55.05396 -1.92985 2518 ft 193 kts 157°
2026-04-27 21:36 55.04248 -1.91892 2410 ft 185 kts 149°
2026-04-27 21:36 55.03143 -1.90760 2305 ft 184 kts 149°
2026-04-27 21:36 55.02253 -1.89224 2115 ft 183 kts 116°
2026-04-27 21:36 55.01989 -1.87162 2058 ft 169 kts 94°
2026-04-27 21:37 55.01870 -1.85108 1814 ft 168 kts 97°
2026-04-27 21:37 55.01685 -1.83156 1597 ft 158 kts 99°
2026-04-27 21:37 55.01498 -1.81221 1413 ft 162 kts 97°
2026-04-27 21:37 55.01626 -1.79323 1287 ft 161 kts 79°
2026-04-27 21:38 55.01821 -1.77388 1134 ft 161 kts 78°
2026-04-27 21:38 55.02080 -1.75507 952 ft 159 kts 72°
2026-04-27 21:38 55.02512 -1.73803 740 ft 147 kts 62°
2026-04-27 21:38 55.02930 -1.72229 517 ft 141 kts 66°
2026-04-27 21:39 55.03347 -1.70650 322 ft 144 kts 65°
2026-04-27 21:39 55.03754 -1.69133 260 ft 143 kts 65°
2026-04-27 21:39 55.04257 -1.67266 436 ft 185 kts 63°
2026-04-27 21:39 55.04872 -1.65138 837 ft 207 kts 62°
2026-04-27 21:40 55.05797 -1.63130 1253 ft 226 kts 35°
2026-04-27 21:40 55.07298 -1.62089 1611 ft 244 kts
2026-04-27 21:40 55.09007 -1.62527 2123 ft 255 kts 335°
2026-04-27 21:40 55.10406 -1.64432 2843 ft 258 kts 306°
2026-04-27 21:41 55.11128 -1.67277 3426 ft 261 kts 279°
2026-04-27 21:41 55.11034 -1.70424 3632 ft 262 kts 254°
2026-04-27 21:41 55.10560 -1.73506 3675 ft 263 kts 254°
2026-04-27 21:41 55.10095 -1.76579 3677 ft 262 kts 254°
2026-04-27 21:42 55.09625 -1.79661 3673 ft 262 kts 255°
2026-04-27 21:42 55.09162 -1.82705 3680 ft 262 kts 254°
2026-04-27 21:42 55.08694 -1.85778 3675 ft 262 kts 255°
2026-04-27 21:42 55.08221 -1.88858 3681 ft 263 kts 255°
2026-04-27 21:43 55.07557 -1.91822 3685 ft 263 kts 240°
2026-04-27 21:43 55.06583 -1.94524 3509 ft 264 kts 230°
2026-04-27 21:43 55.05132 -1.96402 3252 ft 261 kts 202°
2026-04-27 21:43 55.03350 -1.96894 3014 ft 262 kts 175°
2026-04-27 21:44 55.01636 -1.95888 2752 ft 262 kts 147°
2026-04-27 21:44 55.00385 -1.93625 2453 ft 260 kts 119°
2026-04-27 21:44 54.99901 -1.90661 2196 ft 255 kts 91°
2026-04-27 21:44 55.00226 -1.87818 1953 ft 229 kts 68°
2026-04-27 21:45 55.00596 -1.85340 1738 ft 194 kts 79°
2026-04-27 21:45 55.00808 -1.83157 1524 ft 173 kts 79°
2026-04-27 21:45 55.01001 -1.81193 1302 ft 157 kts 79°
2026-04-27 21:45 55.01258 -1.79350 1188 ft 157 kts 75°
2026-04-27 21:46 55.01580 -1.77511 1081 ft 160 kts 68°
2026-04-27 21:46 55.01980 -1.75768 896 ft 151 kts 66°
2026-04-27 21:46 55.02428 -1.74141 732 ft 148 kts 62°
2026-04-27 21:46 55.02855 -1.72502 536 ft 147 kts 65°
2026-04-27 21:47 55.03276 -1.70928 360 ft 138 kts 64°
2026-04-27 21:47 55.03666 -1.69460 263 ft 142 kts 65°
2026-04-27 21:47 55.04146 -1.67649 562 ft 175 kts 64°
2026-04-27 21:47 55.04695 -1.65606 1011 ft 200 kts 64°
2026-04-27 21:48 55.05331 -1.63217 1344 ft 233 kts 64°
2026-04-27 21:48 55.05787 -1.61436 1460 ft 251 kts 69°
2026-04-27 21:48 55.05981 -1.58353 1973 ft 260 kts 97°
2026-04-27 21:48 55.05011 -1.54590 2972 ft 261 kts 131°
2026-04-27 21:49 55.04080 -1.53201 3374 ft 263 kts 148°
2026-04-27 21:49 55.02368 -1.52117 3615 ft 264 kts 173°
2026-04-27 21:49 55.00554 -1.52421 3676 ft 263 kts 199°
2026-04-27 21:49 54.99031 -1.54050 3682 ft 262 kts 226°
2026-04-27 21:50 54.98077 -1.56728 3677 ft 262 kts 252°
2026-04-27 21:50 54.97594 -1.59790 3677 ft 262 kts 255°
2026-04-27 21:50 54.97117 -1.62848 3676 ft 262 kts 255°
2026-04-27 21:50 54.96645 -1.65916 3677 ft 262 kts 256°
2026-04-27 21:51 54.96283 -1.69022 3677 ft 262 kts 260°
2026-04-27 21:51 54.95961 -1.72103 3669 ft 251 kts 260°
2026-04-27 21:51 54.95643 -1.74981 3680 ft 237 kts 260°
2026-04-27 21:51 54.95325 -1.77831 3676 ft 243 kts 260°
2026-04-27 21:52 54.94981 -1.80714 3693 ft 249 kts 261°
2026-04-27 21:52 54.94553 -1.83707 3688 ft 262 kts 259°
2026-04-27 21:52 54.94191 -1.86981 3667 ft 283 kts 263°
2026-04-27 21:52 54.94352 -1.90349 3699 ft 277 kts 290°
2026-04-27 21:53 54.95267 -1.93229 3527 ft 270 kts 316°
2026-04-27 21:53 54.96772 -1.95065 3351 ft 260 kts 342°
2026-04-27 21:53 54.98460 -1.95499 3095 ft 237 kts 11°
2026-04-27 21:53 54.99925 -1.94515 2854 ft 220 kts 39°
2026-04-27 21:54 55.00832 -1.92525 2606 ft 210 kts 69°
2026-04-27 21:54 55.01316 -1.90162 2344 ft 202 kts 72°
2026-04-27 21:54 55.01418 -1.87791 2068 ft 187 kts 91°
2026-04-27 21:54 55.01325 -1.85647 1827 ft 174 kts 95°
2026-04-27 21:55 55.01175 -1.83610 1523 ft 163 kts 95°
2026-04-27 21:55 55.01193 -1.81752 1270 ft 146 kts 76°
2026-04-27 21:55 55.01284 -1.79970 1083 ft 154 kts 87°
2026-04-27 21:55 55.01494 -1.78075 1023 ft 160 kts 70°
2026-04-27 21:56 55.01869 -1.76285 942 ft 155 kts 71°
2026-04-27 21:56 55.02693 -1.73078 591 ft 131 kts 66°
2026-04-27 21:56 55.03084 -1.71637 367 ft 147 kts 66°
2026-04-27 21:57 55.03531 -1.69957 644 ft 166 kts 66°
2026-04-27 21:57 55.04053 -1.67945 882 ft 198 kts 67°
2026-04-27 21:57 55.04454 -1.65466 1302 ft 227 kts 84°
2026-04-27 21:57 55.03905 -1.62904 1971 ft 240 kts 148°
2026-04-27 21:58 55.02328 -1.62090 3025 ft 250 kts 167°
2026-04-27 21:58 55.00480 -1.62419 3352 ft 287 kts 195°
2026-04-27 21:58 54.98552 -1.63649 3626 ft 311 kts 196°
2026-04-27 21:58 54.96565 -1.65603 3666 ft 348 kts 218°
2026-04-27 21:59 54.94999 -1.68815 3665 ft 339 kts 240°
2026-04-27 21:59 54.94262 -1.72509 3660 ft 311 kts 263°
2026-04-27 21:59 54.94028 -1.76095 3652 ft 285 kts 266°
2026-04-27 21:59 54.94187 -1.79480 3659 ft 290 kts 291°
2026-04-27 22:00 54.95028 -1.82762 3654 ft 298 kts 301°
2026-04-27 22:00 54.95942 -1.85912 3409 ft 283 kts 306°
2026-04-27 22:00 54.97227 -1.88199 3187 ft 254 kts 334°
2026-04-27 22:00 54.98796 -1.89105 2926 ft 226 kts
2026-04-27 22:01 55.00241 -1.88544 2676 ft 206 kts 33°
2026-04-27 22:01 55.01180 -1.86868 2381 ft 188 kts 66°
2026-04-27 22:01 55.01590 -1.84805 2148 ft 171 kts 79°
2026-04-27 22:01 55.01661 -1.82881 1837 ft 151 kts 87°
2026-04-27 22:02 55.01662 -1.80942 1574 ft 173 kts 87°
2026-04-27 22:02 55.01739 -1.78957 1275 ft 153 kts 82°
2026-04-27 22:02 55.01904 -1.77220 1001 ft 137 kts 76°
2026-04-27 22:02 55.02129 -1.75735 847 ft 118 kts 73°
2026-04-27 22:03 55.02400 -1.74393 674 ft 122 kts 69°
2026-04-27 22:03 55.02758 -1.72902 564 ft 141 kts 67°
2026-04-27 22:03 55.03170 -1.71339 383 ft 140 kts 66°
2026-04-27 22:03 55.03562 -1.69840 270 ft 134 kts 66°
2026-04-27 22:04 55.03856 -1.68739 256 ft 53 kts 65°
2026-04-27 22:04 55.04003 -1.68347 254 ft 21 kts 36°
2026-04-27 22:04 55.04096 -1.68247 254 ft 11 kts 10°
2026-04-27 22:04 55.04138 -1.68304 254 ft 7 kts 287°
2026-04-27 22:05 55.04126 -1.68400 254 ft 10 kts 247°
2026-04-27 22:05 55.04091 -1.68541 254 ft 15 kts 246°
2026-04-27 22:05 55.04039 -1.68736 256 ft 22 kts 244°
2026-04-27 22:05 55.03967 -1.69004 257 ft 26 kts 245°
2026-04-27 22:06 55.03892 -1.69291 260 ft 25 kts 245°
2026-04-27 22:06 55.03822 -1.69567 262 ft 25 kts 250°
2026-04-27 22:06 55.03783 -1.69854 265 ft 24 kts 262°
2026-04-27 22:06 55.03774 -1.70129 268 ft 21 kts 271°
2026-04-27 22:07 55.03781 -1.70330 273 ft 11 kts 274°
2026-04-27 22:07 55.03813 -1.70442 273 ft 11 kts 310°
2026-04-27 22:07 55.03873 -1.70536 273 ft 2 kts 319°
2026-04-27 22:07 55.03873 -1.70537 273 ft 0 kts 319°